AAL172 KJFK-EBBR

Flight info

Callsign AAL172
Flight time 7h 0m
Altitude 35000
Route BETTE DCT ACK DCT TUSKY N355C JOOPY/M079F350 DCT 49N050W 51N040W 53N030W 54N020W DCT DOGAL DCT BEXET/N0453F370 DCT MORAG DCT NUCHU L607 BIG/N0474F290 Q70 VABIK/N0431F230 Q70 KOK
Aircraft B752/M-SDE3FGHIM3RWXY/LB1

Departure

Time 2026-05-04 11:01
Airport John F. Kennedy International Airport (KJFK)

Arrival

Time 2026-05-04 18:02
Airport Brussels Airport (EBBR)
Time Latitude Longitude Altitude Speed Heading
2026-05-04 10:26 40.64740 -73.79416 19 ft 0 kts 150°
2026-05-04 10:45 40.64747 -73.79421 19 ft 2 kts 150°
2026-05-04 10:45 40.64760 -73.79431 19 ft 2 kts 150°
2026-05-04 10:45 40.64774 -73.79440 19 ft 2 kts 150°
2026-05-04 10:46 40.64786 -73.79450 19 ft 2 kts 134°
2026-05-04 10:46 40.64794 -73.79467 19 ft 2 kts 110°
2026-05-04 10:46 40.64797 -73.79486 19 ft 2 kts 87°
2026-05-04 10:46 40.64794 -73.79505 19 ft 1 kts 64°
2026-05-04 10:47 40.64786 -73.79521 19 ft 2 kts 61°
2026-05-04 10:47 40.64779 -73.79539 19 ft 2 kts 63°
2026-05-04 10:47 40.64776 -73.79548 19 ft 1 kts 61°
2026-05-04 10:47 40.64776 -73.79549 19 ft 0 kts 61°
2026-05-04 10:50 40.64776 -73.79547 19 ft 1 kts 62°
2026-05-04 10:51 40.64928 -73.79188 19 ft 10 kts 60°
2026-05-04 10:52 40.64967 -73.79097 19 ft 9 kts 61°
2026-05-04 10:52 40.64998 -73.79026 19 ft 8 kts 60°
2026-05-04 10:52 40.65014 -73.78988 19 ft 4 kts 60°
2026-05-04 10:54 40.65284 -73.78648 19 ft 13 kts 62°
2026-05-04 10:54 40.65325 -73.78546 19 ft 11 kts 63°
2026-05-04 10:56 40.65425 -73.77966 18 ft 8 kts 120°
2026-05-04 10:56 40.65393 -73.77896 18 ft 10 kts 121°
2026-05-04 10:56 40.65346 -73.77792 18 ft 15 kts 120°
2026-05-04 10:57 40.65282 -73.77652 18 ft 20 kts 122°
2026-05-04 10:57 40.65202 -73.77475 18 ft 24 kts 121°
2026-05-04 10:57 40.65116 -73.77286 18 ft 23 kts 120°
2026-05-04 10:57 40.65036 -73.77108 18 ft 21 kts 121°
2026-05-04 10:58 40.64965 -73.76951 19 ft 16 kts 121°
2026-05-04 10:58 40.64930 -73.76871 19 ft 6 kts 120°
2026-05-04 10:58 40.64907 -73.76822 19 ft 6 kts 122°
2026-05-04 10:58 40.64879 -73.76762 19 ft 8 kts 119°
2026-05-04 10:59 40.64888 -73.76693 19 ft 10 kts 39°
2026-05-04 10:59 40.64977 -73.76621 19 ft 18 kts 31°
2026-05-04 10:59 40.65082 -73.76538 19 ft 14 kts 34°
2026-05-04 10:59 40.65091 -73.76452 19 ft 9 kts 119°
2026-05-04 11:00 40.65056 -73.76383 19 ft 9 kts 138°
2026-05-04 11:01 40.59241 -73.81226 2412 ft 211 kts 219°
2026-05-04 11:02 40.58018 -73.82389 2997 ft 223 kts 219°
2026-05-04 11:02 40.56731 -73.83623 3494 ft 239 kts 219°
2026-05-04 11:05 40.52445 -73.51816 11192 ft 394 kts 85°
2026-05-04 11:06 40.52699 -73.48227 11824 ft 397 kts 84°
2026-05-04 11:06 40.52954 -73.44604 12333 ft 403 kts 84°
2026-05-04 11:06 40.53211 -73.40944 12976 ft 404 kts 84°
2026-05-04 11:06 40.53469 -73.37256 13481 ft 410 kts 84°
2026-05-04 11:08 40.55306 -73.10423 17202 ft 433 kts 84°
2026-05-04 11:10 40.60541 -72.83239 20356 ft 451 kts 69°
2026-05-04 11:12 40.67662 -72.55227 23057 ft 474 kts 69°
2026-05-04 11:12 40.68701 -72.51116 23438 ft 476 kts 69°
2026-05-04 11:12 40.69746 -72.46975 23784 ft 479 kts 69°
2026-05-04 11:12 40.70791 -72.42821 24184 ft 480 kts 69°
2026-05-04 11:13 40.71842 -72.38642 24417 ft 485 kts 69°
2026-05-04 11:13 40.72903 -72.34413 24747 ft 487 kts 70°
2026-05-04 11:13 40.73963 -72.30180 25079 ft 489 kts 70°
2026-05-04 11:13 40.75028 -72.25920 25311 ft 493 kts 70°
2026-05-04 11:14 40.76098 -72.21633 25589 ft 496 kts 70°
2026-05-04 11:14 40.77172 -72.17320 25896 ft 497 kts 70°
2026-05-04 11:14 40.78251 -72.12983 26121 ft 501 kts 70°
2026-05-04 11:16 40.85912 -71.81942 27901 ft 518 kts 70°
2026-05-04 11:16 40.87022 -71.77409 28051 ft 522 kts 70°
2026-05-04 11:16 40.88133 -71.72867 28331 ft 523 kts 70°
2026-05-04 11:17 40.89247 -71.68301 28548 ft 525 kts 70°
2026-05-04 11:17 40.90364 -71.63712 28732 ft 528 kts 70°
2026-05-04 11:19 40.98246 -71.31087 30315 ft 540 kts 71°
2026-05-04 11:19 40.99374 -71.26380 30623 ft 538 kts 71°
2026-05-04 11:19 41.00500 -71.21667 30881 ft 538 kts 71°
2026-05-04 11:19 41.01622 -71.16968 31146 ft 537 kts 71°
2026-05-04 11:20 41.02742 -71.12263 31347 ft 538 kts 71°
2026-05-04 11:20 41.03862 -71.07554 31546 ft 538 kts 71°
2026-05-04 11:20 41.04980 -71.02840 31744 ft 538 kts 71°
2026-05-04 11:20 41.06097 -70.98123 31939 ft 539 kts 71°
2026-05-04 11:22 41.13873 -70.64996 32999 ft 539 kts 71°
2026-05-04 11:22 41.14976 -70.60257 33137 ft 539 kts 71°
2026-05-04 11:23 41.16076 -70.55520 33271 ft 540 kts 71°
2026-05-04 11:23 41.17178 -70.50766 33419 ft 539 kts 71°
2026-05-04 11:24 41.23720 -70.22334 34209 ft 538 kts 72°
2026-05-04 11:25 41.24802 -70.17599 34333 ft 538 kts 72°
2026-05-04 11:25 41.25884 -70.12849 34470 ft 538 kts 72°
2026-05-04 11:25 41.27092 -70.08186 34658 ft 534 kts 65°
2026-05-04 11:26 41.30836 -69.99778 34818 ft 528 kts 46°
2026-05-04 11:27 41.48981 -69.76438 34955 ft 519 kts 39°
2026-05-04 11:28 41.54199 -69.69811 34959 ft 519 kts 39°
2026-05-04 11:28 41.59400 -69.63188 34957 ft 517 kts 39°
2026-05-04 11:29 41.64594 -69.56561 34957 ft 517 kts 39°
2026-05-04 11:29 41.69762 -69.49950 34954 ft 515 kts 39°
2026-05-04 11:33 42.05788 -69.03435 34940 ft 513 kts 40°
2026-05-04 11:33 42.10911 -68.96758 34933 ft 514 kts 40°
2026-05-04 11:34 42.16024 -68.90077 34937 ft 512 kts 40°
2026-05-04 11:34 42.21128 -68.83394 34935 ft 514 kts 40°
2026-05-04 11:35 42.26230 -68.76695 34931 ft 513 kts 40°
2026-05-04 11:35 42.31316 -68.70001 34929 ft 512 kts 40°
2026-05-04 11:36 42.36399 -68.63298 34929 ft 513 kts 40°
2026-05-04 11:36 42.41490 -68.56567 34915 ft 513 kts 40°
2026-05-04 11:37 42.46572 -68.49831 34898 ft 512 kts 40°
2026-05-04 11:37 42.51637 -68.43103 34904 ft 512 kts 40°
2026-05-04 11:38 42.56710 -68.36347 34914 ft 513 kts 40°
2026-05-04 11:38 42.61791 -68.29564 34899 ft 512 kts 41°
2026-05-04 11:39 42.66844 -68.22802 34900 ft 512 kts 41°
2026-05-04 11:41 42.84487 -67.99063 34893 ft 512 kts 41°
2026-05-04 11:41 42.89520 -67.92253 34882 ft 511 kts 41°
2026-05-04 11:42 42.94549 -67.85435 34889 ft 510 kts 41°
2026-05-04 11:42 42.99569 -67.78611 34881 ft 510 kts 41°
2026-05-04 11:43 43.04582 -67.71780 34881 ft 510 kts 41°
2026-05-04 11:43 43.09576 -67.64956 34879 ft 509 kts 41°
2026-05-04 11:44 43.14573 -67.58113 34887 ft 509 kts 41°
2026-05-04 11:44 43.19553 -67.51277 34871 ft 508 kts 41°
2026-05-04 11:45 43.24525 -67.44435 34881 ft 509 kts 41°
2026-05-04 11:45 43.29496 -67.37576 34872 ft 507 kts 41°
2026-05-04 11:46 43.34457 -67.30716 34870 ft 508 kts 42°
2026-05-04 11:46 43.39416 -67.23842 34868 ft 508 kts 42°
2026-05-04 11:47 43.44372 -67.16953 34863 ft 507 kts 42°
2026-05-04 11:47 43.49326 -67.10053 34865 ft 509 kts 42°
2026-05-04 11:48 43.54267 -67.03130 34861 ft 508 kts 44°
2026-05-04 11:48 43.58400 -66.95222 34855 ft 512 kts 56°
2026-05-04 11:49 43.62083 -66.86858 34845 ft 511 kts 57°
2026-05-04 11:49 43.65707 -66.78455 34842 ft 512 kts 57°
2026-05-04 11:50 43.69315 -66.70002 34846 ft 512 kts 57°
2026-05-04 11:50 43.72905 -66.61549 34836 ft 512 kts 57°
2026-05-04 11:51 43.76483 -66.53093 34835 ft 511 kts 57°
2026-05-04 11:51 43.80046 -66.44644 34841 ft 510 kts 57°
2026-05-04 11:52 43.83603 -66.36184 34836 ft 510 kts 57°
2026-05-04 11:52 43.87158 -66.27703 34823 ft 510 kts 58°
2026-05-04 11:53 43.90696 -66.19238 34823 ft 509 kts 58°
2026-05-04 11:53 43.94228 -66.10761 34818 ft 509 kts 58°
2026-05-04 11:55 44.08310 -65.76718 34804 ft 510 kts 58°
2026-05-04 11:56 44.11819 -65.68170 34784 ft 509 kts 58°
2026-05-04 11:56 44.15313 -65.59633 34778 ft 509 kts 58°
2026-05-04 11:57 44.18801 -65.51086 34768 ft 509 kts 58°
2026-05-04 11:57 44.22270 -65.42560 34765 ft 507 kts 58°
2026-05-04 11:58 44.25743 -65.33999 34769 ft 509 kts 59°
2026-05-04 11:58 44.29209 -65.25428 34757 ft 508 kts 59°
2026-05-04 11:59 44.32666 -65.16853 34768 ft 509 kts 59°
2026-05-04 11:59 44.36118 -65.08266 34763 ft 508 kts 59°
2026-05-04 12:00 44.39558 -64.99680 34762 ft 508 kts 59°
2026-05-04 12:00 44.42999 -64.91070 34760 ft 509 kts 59°
2026-05-04 12:01 44.46433 -64.82448 34746 ft 509 kts 59°
2026-05-04 12:02 44.58357 -64.52302 34729 ft 506 kts 59°
2026-05-04 12:03 44.61745 -64.43680 34726 ft 507 kts 59°
2026-05-04 12:03 44.65130 -64.35036 34711 ft 507 kts 59°
2026-05-04 12:04 44.68506 -64.26387 34700 ft 506 kts 60°
2026-05-04 12:04 44.71870 -64.17746 34694 ft 506 kts 60°
2026-05-04 12:05 44.75226 -64.09097 34683 ft 505 kts 60°
2026-05-04 12:05 44.78572 -64.00445 34683 ft 506 kts 60°
2026-05-04 12:06 44.81914 -63.91778 34675 ft 506 kts 60°
2026-05-04 12:06 44.85245 -63.83113 34660 ft 504 kts 60°
2026-05-04 12:07 44.88557 -63.74469 34657 ft 503 kts 60°
2026-05-04 12:07 44.91863 -63.65816 34644 ft 503 kts 60°
2026-05-04 12:08 44.95159 -63.57160 34634 ft 503 kts 60°
2026-05-04 12:08 44.98448 -63.48494 34631 ft 502 kts 60°
2026-05-04 12:09 45.01721 -63.39844 34631 ft 501 kts 60°
2026-05-04 12:09 45.04997 -63.31163 34610 ft 502 kts 61°
2026-05-04 12:10 45.08262 -63.22479 34617 ft 502 kts 61°
2026-05-04 12:10 45.11527 -63.13770 34605 ft 501 kts 61°
2026-05-04 12:11 45.14774 -63.05080 34598 ft 501 kts 61°
2026-05-04 12:11 45.18021 -62.96363 34575 ft 501 kts 61°
2026-05-04 12:12 45.21250 -62.87667 34574 ft 500 kts 61°
2026-05-04 12:12 45.24475 -62.78953 34571 ft 501 kts 61°
2026-05-04 12:14 45.37310 -62.43998 34536 ft 501 kts 61°
2026-05-04 12:15 45.40500 -62.35241 34525 ft 500 kts 61°
2026-05-04 12:15 45.43687 -62.26461 34501 ft 501 kts 62°
2026-05-04 12:16 45.46862 -62.17687 34498 ft 500 kts 62°
2026-05-04 12:16 45.50030 -62.08906 34492 ft 500 kts 62°
2026-05-04 12:17 45.53189 -62.00119 34489 ft 500 kts 62°
2026-05-04 12:17 45.56342 -61.91320 34475 ft 500 kts 62°
2026-05-04 12:18 45.59486 -61.82519 34479 ft 499 kts 62°
2026-05-04 12:18 45.62616 -61.73727 34476 ft 499 kts 62°
2026-05-04 12:19 45.65751 -61.64895 34464 ft 501 kts 62°
2026-05-04 12:19 45.68882 -61.56040 34454 ft 500 kts 62°
2026-05-04 12:20 45.71999 -61.47200 34447 ft 499 kts 62°
2026-05-04 12:20 45.75108 -61.38352 34421 ft 499 kts 62°
2026-05-04 12:21 45.78210 -61.29496 34415 ft 498 kts 63°
2026-05-04 12:21 45.81297 -61.20650 34418 ft 499 kts 63°
2026-05-04 12:22 45.84382 -61.11784 34364 ft 498 kts 63°
2026-05-04 12:22 45.87453 -61.02927 34367 ft 498 kts 63°
2026-05-04 12:23 45.90520 -60.94050 34376 ft 499 kts 63°
2026-05-04 12:23 45.93592 -60.85131 34368 ft 499 kts 63°
2026-05-04 12:24 45.96646 -60.76236 34373 ft 498 kts 64°
2026-05-04 12:24 45.99697 -60.67315 34366 ft 499 kts 64°
2026-05-04 12:25 46.02739 -60.58393 34354 ft 498 kts 64°
2026-05-04 12:25 46.05772 -60.49468 34317 ft 498 kts 64°
2026-05-04 12:26 46.08798 -60.40531 34308 ft 499 kts 64°
2026-05-04 12:26 46.11821 -60.31577 34271 ft 498 kts 65°
2026-05-04 12:27 46.14830 -60.22629 34271 ft 498 kts 65°
2026-05-04 12:27 46.17839 -60.13653 34268 ft 499 kts 65°
2026-05-04 12:28 46.20842 -60.04662 34249 ft 500 kts 65°
2026-05-04 12:28 46.23839 -59.95660 34269 ft 498 kts 65°
2026-05-04 12:29 46.26824 -59.86665 34256 ft 498 kts 65°
2026-05-04 12:29 46.29799 -59.77665 34251 ft 498 kts 65°
2026-05-04 12:30 46.32765 -59.68663 34225 ft 498 kts 65°
2026-05-04 12:30 46.35728 -59.59638 34245 ft 498 kts 65°
2026-05-04 12:31 46.38684 -59.50604 34223 ft 498 kts 65°
2026-05-04 12:31 46.41625 -59.41582 34242 ft 497 kts 65°
2026-05-04 12:32 46.46037 -59.27993 34202 ft 499 kts 66°
2026-05-04 12:33 46.48958 -59.18956 34187 ft 496 kts 66°
2026-05-04 12:33 46.51870 -59.09912 34177 ft 496 kts 66°
2026-05-04 12:34 46.54779 -59.00851 34175 ft 497 kts 67°
2026-05-04 12:34 46.57677 -58.91787 34192 ft 496 kts 66°
2026-05-04 12:35 46.60569 -58.82712 34174 ft 496 kts 67°
2026-05-04 12:35 46.63452 -58.73630 34161 ft 496 kts 67°
2026-05-04 12:36 46.66327 -58.64546 34170 ft 496 kts 67°
2026-05-04 12:36 46.69199 -58.55435 34189 ft 497 kts 67°
2026-05-04 12:37 46.72064 -58.46318 34155 ft 496 kts 67°
2026-05-04 12:37 46.74912 -58.37219 34170 ft 495 kts 67°
2026-05-04 12:38 46.77759 -58.28093 34165 ft 496 kts 68°
2026-05-04 12:38 46.80593 -58.18973 34175 ft 495 kts 68°
2026-05-04 12:39 46.83421 -58.09837 34175 ft 496 kts 68°
2026-05-04 12:39 46.86242 -58.00697 34157 ft 494 kts 68°
2026-05-04 12:40 46.89045 -57.91577 34156 ft 495 kts 68°
2026-05-04 12:40 46.91848 -57.82428 34166 ft 494 kts 68°
2026-05-04 12:41 46.94642 -57.73273 34183 ft 495 kts 68°
2026-05-04 12:41 46.97430 -57.64104 34212 ft 496 kts 68°
2026-05-04 12:42 47.00211 -57.54923 34197 ft 494 kts 68°
2026-05-04 12:42 47.02980 -57.45749 34202 ft 494 kts 68°
2026-05-04 12:43 47.05745 -57.36555 34207 ft 495 kts 68°
2026-05-04 12:43 47.08509 -57.27331 34223 ft 495 kts 69°
2026-05-04 12:44 47.11261 -57.18112 34218 ft 494 kts 69°
2026-05-04 12:44 47.14002 -57.08894 34218 ft 494 kts 69°
2026-05-04 12:45 47.16735 -56.99672 34234 ft 494 kts 69°
2026-05-04 12:45 47.19454 -56.90461 34243 ft 492 kts 70°
2026-05-04 12:46 47.22165 -56.81243 34235 ft 493 kts 70°
2026-05-04 12:46 47.24873 -56.71999 34245 ft 494 kts 70°
2026-05-04 12:47 47.27573 -56.62751 34267 ft 493 kts 70°
2026-05-04 12:47 47.30260 -56.53507 34281 ft 493 kts 70°
2026-05-04 12:48 47.32944 -56.44242 34292 ft 493 kts 70°
2026-05-04 12:48 47.35622 -56.34962 34283 ft 493 kts 71°
2026-05-04 12:49 47.38295 -56.25666 34298 ft 492 kts 71°
2026-05-04 12:49 47.40946 -56.16407 34308 ft 492 kts 71°
2026-05-04 12:50 47.43591 -56.07135 34316 ft 491 kts 71°
2026-05-04 12:50 47.46225 -55.97867 34337 ft 491 kts 71°
2026-05-04 12:51 47.48851 -55.88590 34323 ft 491 kts 71°
2026-05-04 12:51 47.51472 -55.79296 34328 ft 492 kts 71°
2026-05-04 12:52 47.54086 -55.69994 34325 ft 490 kts 71°
2026-05-04 12:52 47.56684 -55.60709 34328 ft 491 kts 71°
2026-05-04 12:53 47.59284 -55.51381 34337 ft 492 kts 72°
2026-05-04 12:53 47.61869 -55.42072 34358 ft 490 kts 72°
2026-05-04 12:54 47.64452 -55.32732 34379 ft 492 kts 72°
2026-05-04 12:54 47.67029 -55.23381 34378 ft 490 kts 72°
2026-05-04 12:55 47.69591 -55.14044 34390 ft 491 kts 73°
2026-05-04 12:55 47.72149 -55.04683 34371 ft 490 kts 73°
2026-05-04 12:56 47.74695 -54.95334 34389 ft 490 kts 73°
2026-05-04 12:56 47.77228 -54.85995 34388 ft 488 kts 73°
2026-05-04 12:57 47.79751 -54.76652 34404 ft 490 kts 73°
2026-05-04 12:57 47.82273 -54.67274 34406 ft 491 kts 73°
2026-05-04 12:58 47.84789 -54.57886 34423 ft 490 kts 73°
2026-05-04 12:58 47.87296 -54.48492 34426 ft 491 kts 73°
2026-05-04 12:59 47.89805 -54.39057 34423 ft 491 kts 73°
2026-05-04 12:59 47.92293 -54.29661 34422 ft 487 kts 75°
2026-05-04 13:00 47.94763 -54.20288 34434 ft 489 kts 75°
2026-05-04 13:00 47.97230 -54.10895 34433 ft 487 kts 75°
2026-05-04 13:01 47.99679 -54.01532 34449 ft 486 kts 75°
2026-05-04 13:01 48.02128 -53.92120 34469 ft 490 kts 75°
2026-05-04 13:02 48.04581 -53.82671 34466 ft 490 kts 75°
2026-05-04 13:02 48.07021 -53.73227 34478 ft 488 kts 76°
2026-05-04 13:03 48.09445 -53.63808 34471 ft 487 kts 76°
2026-05-04 13:03 48.11859 -53.54383 34465 ft 487 kts 76°
2026-05-04 13:04 48.14262 -53.44969 34476 ft 485 kts 76°
2026-05-04 13:04 48.16649 -53.35572 34485 ft 484 kts 76°
2026-05-04 13:05 48.19025 -53.26188 34483 ft 483 kts 77°
2026-05-04 13:05 48.21389 -53.16803 34507 ft 484 kts 77°
2026-05-04 13:06 48.23751 -53.07393 34498 ft 482 kts 77°
2026-05-04 13:06 48.26089 -52.98035 34525 ft 482 kts 77°
2026-05-04 13:07 48.28430 -52.88628 34504 ft 482 kts 78°
2026-05-04 13:07 48.30760 -52.79227 34518 ft 482 kts 77°
2026-05-04 13:08 48.33086 -52.69801 34522 ft 483 kts 77°
2026-05-04 13:08 48.35401 -52.60382 34538 ft 483 kts 78°
2026-05-04 13:09 48.37707 -52.50963 34561 ft 481 kts 78°
2026-05-04 13:09 48.39995 -52.41569 34535 ft 481 kts 78°
2026-05-04 13:10 48.42288 -52.32115 34563 ft 483 kts 79°
2026-05-04 13:10 48.44577 -52.22652 34567 ft 480 kts 79°
2026-05-04 13:11 48.46830 -52.13281 34564 ft 477 kts 79°
2026-05-04 13:11 48.49088 -52.03845 34558 ft 484 kts 79°
2026-05-04 13:12 48.51482 -51.94406 34570 ft 484 kts 77°
2026-05-04 13:12 48.53929 -51.84955 34576 ft 487 kts 78°
2026-05-04 13:13 48.56371 -51.75518 34572 ft 484 kts 77°
2026-05-04 13:13 48.58805 -51.66073 34575 ft 484 kts 78°
2026-05-04 13:14 48.61234 -51.56617 34592 ft 485 kts 78°
2026-05-04 13:14 48.63654 -51.47149 34612 ft 487 kts 78°
2026-05-04 13:15 48.66077 -51.37644 34614 ft 486 kts 78°
2026-05-04 13:15 48.68490 -51.28134 34612 ft 483 kts 79°
2026-05-04 13:16 48.70875 -51.18688 34600 ft 483 kts 79°
2026-05-04 13:16 48.73261 -51.09205 34608 ft 483 kts 79°
2026-05-04 13:17 48.75630 -50.99741 34630 ft 483 kts 79°
2026-05-04 13:17 48.78002 -50.90230 34624 ft 484 kts 79°
2026-05-04 13:18 48.80359 -50.80741 34643 ft 484 kts 79°
2026-05-04 13:18 48.82714 -50.71222 34641 ft 484 kts 79°
2026-05-04 13:19 48.85067 -50.61655 34660 ft 487 kts 79°
2026-05-04 13:19 48.87409 -50.52117 34655 ft 483 kts 79°
2026-05-04 13:20 48.89737 -50.42571 34651 ft 485 kts 79°
2026-05-04 13:20 48.92064 -50.33007 34660 ft 481 kts 80°
2026-05-04 13:21 48.94362 -50.23506 34651 ft 481 kts 80°
2026-05-04 13:21 48.96662 -50.13956 34677 ft 485 kts 80°
2026-05-04 13:22 48.98966 -50.04356 34675 ft 485 kts 80°
2026-05-04 13:22 49.01323 -49.94783 34696 ft 485 kts 79°
2026-05-04 13:23 49.03733 -49.85213 34697 ft 488 kts 79°
2026-05-04 13:23 49.06140 -49.75613 34699 ft 488 kts 79°
2026-05-04 13:24 49.08538 -49.66010 34704 ft 486 kts 79°
2026-05-04 13:24 49.10929 -49.56392 34669 ft 485 kts 79°
2026-05-04 13:25 49.14503 -49.41922 34668 ft 490 kts 78°
2026-05-04 13:25 49.16885 -49.32232 34684 ft 490 kts 79°
2026-05-04 13:26 49.19263 -49.22521 34678 ft 489 kts 79°
2026-05-04 13:26 49.21626 -49.12819 34693 ft 489 kts 79°
2026-05-04 13:27 49.23981 -49.03118 34686 ft 488 kts 78°
2026-05-04 13:27 49.26326 -48.93404 34706 ft 489 kts 79°
2026-05-04 13:28 49.28670 -48.83656 34708 ft 490 kts 78°
2026-05-04 13:28 49.31012 -48.73872 34707 ft 492 kts 79°
2026-05-04 13:29 49.33356 -48.64032 34720 ft 495 kts 78°
2026-05-04 13:29 49.35701 -48.54149 34730 ft 497 kts 78°
2026-05-04 13:30 49.38054 -48.44186 34726 ft 500 kts 78°
2026-05-04 13:30 49.40396 -48.34232 34727 ft 497 kts 78°
2026-05-04 13:31 49.42732 -48.24248 34727 ft 500 kts 79°
2026-05-04 13:31 49.45068 -48.14215 34735 ft 502 kts 79°
2026-05-04 13:32 49.47389 -48.04204 34747 ft 499 kts 78°
2026-05-04 13:32 49.49704 -47.94162 34760 ft 502 kts 78°
2026-05-04 13:33 49.52027 -47.84056 34758 ft 503 kts 78°
2026-05-04 13:33 49.54343 -47.73922 34768 ft 506 kts 78°
2026-05-04 13:34 49.56653 -47.63776 34771 ft 502 kts 78°
2026-05-04 13:34 49.58944 -47.53662 34773 ft 501 kts 78°
2026-05-04 13:35 49.62365 -47.38443 34796 ft 506 kts 77°
2026-05-04 13:36 49.64650 -47.28233 34802 ft 505 kts 78°
2026-05-04 13:36 49.66919 -47.18045 34787 ft 503 kts 78°
2026-05-04 13:37 49.69168 -47.07883 34814 ft 504 kts 77°
2026-05-04 13:37 49.71422 -46.97652 34818 ft 508 kts 77°
2026-05-04 13:38 49.73678 -46.87371 34835 ft 507 kts 77°
2026-05-04 13:38 49.75921 -46.77093 34833 ft 508 kts 77°
2026-05-04 13:39 49.78167 -46.66761 34836 ft 506 kts 77°
2026-05-04 13:39 49.80391 -46.56459 34849 ft 509 kts 77°
2026-05-04 13:40 49.82620 -46.46086 34869 ft 512 kts 76°
2026-05-04 13:40 49.84854 -46.35649 34882 ft 512 kts 76°
2026-05-04 13:41 49.87071 -46.25230 34866 ft 512 kts 77°
2026-05-04 13:41 49.89284 -46.14783 34875 ft 513 kts 76°
2026-05-04 13:42 49.92602 -45.99006 34875 ft 517 kts 76°
2026-05-04 13:42 49.94811 -45.88435 34906 ft 518 kts 76°
2026-05-04 13:43 49.97015 -45.77834 34918 ft 519 kts 76°
2026-05-04 13:43 49.99215 -45.67199 34910 ft 518 kts 76°
2026-05-04 13:44 50.01398 -45.56570 34938 ft 520 kts 76°
2026-05-04 13:44 50.03588 -45.45874 34942 ft 521 kts 76°
2026-05-04 13:45 50.05765 -45.35176 34944 ft 522 kts 75°
2026-05-04 13:45 50.07936 -45.24440 34953 ft 523 kts 75°
2026-05-04 13:46 50.10099 -45.13695 34956 ft 521 kts 75°
2026-05-04 13:46 50.12241 -45.02994 34953 ft 521 kts 75°
2026-05-04 13:47 50.14383 -44.92227 34957 ft 522 kts 75°
2026-05-04 13:47 50.16517 -44.81459 34953 ft 522 kts 75°
2026-05-04 13:48 50.18643 -44.70648 34956 ft 524 kts 75°
2026-05-04 13:48 50.20764 -44.59806 34969 ft 524 kts 74°
2026-05-04 13:49 50.22871 -44.48984 34971 ft 523 kts 74°
2026-05-04 13:49 50.24974 -44.38123 34991 ft 525 kts 74°
2026-05-04 13:50 50.27068 -44.27245 34978 ft 525 kts 75°
2026-05-04 13:50 50.29150 -44.16358 34997 ft 525 kts 75°
2026-05-04 13:51 50.31221 -44.05468 34994 ft 524 kts 75°
2026-05-04 13:51 50.33278 -43.94595 35002 ft 522 kts 75°
2026-05-04 13:52 50.36332 -43.78329 35021 ft 522 kts 74°
2026-05-04 13:53 50.38364 -43.67426 35037 ft 524 kts 74°
2026-05-04 13:53 50.40385 -43.56527 35049 ft 522 kts 74°
2026-05-04 13:54 50.43387 -43.40193 35057 ft 522 kts 74°
2026-05-04 13:55 50.46363 -43.23884 35052 ft 522 kts 75°
2026-05-04 13:55 50.49317 -43.07527 35073 ft 523 kts 73°
2026-05-04 13:56 50.51276 -42.96603 35067 ft 520 kts 74°
2026-05-04 13:57 50.54192 -42.80221 35070 ft 521 kts 73°
2026-05-04 13:58 50.58052 -42.58302 35095 ft 522 kts 73°
2026-05-04 13:58 50.60915 -42.41861 35108 ft 523 kts 72°
2026-05-04 13:59 50.62821 -42.30835 35099 ft 524 kts 73°
2026-05-04 14:00 50.65656 -42.14299 35117 ft 523 kts 73°
2026-05-04 14:00 50.68474 -41.97719 35134 ft 525 kts 73°
2026-05-04 14:01 50.70336 -41.86651 35135 ft 523 kts 72°
2026-05-04 14:02 50.73111 -41.70063 35150 ft 523 kts 73°
2026-05-04 14:02 50.74945 -41.59000 35157 ft 525 kts 72°
2026-05-04 14:03 50.76775 -41.47892 35169 ft 524 kts 72°
2026-05-04 14:03 50.78598 -41.36750 35173 ft 525 kts 71°
2026-05-04 14:04 50.81301 -41.20103 35182 ft 524 kts 73°
2026-05-04 14:04 50.83091 -41.08978 35181 ft 525 kts 72°
2026-05-04 14:05 50.85752 -40.92304 35197 ft 523 kts 72°
2026-05-04 14:06 50.87518 -40.81160 35207 ft 524 kts 72°
2026-05-04 14:06 50.89269 -40.70016 35209 ft 523 kts 72°
2026-05-04 14:07 50.91007 -40.58893 35214 ft 522 kts 72°
2026-05-04 14:07 50.92738 -40.47729 35225 ft 524 kts 72°
2026-05-04 14:08 50.94455 -40.36582 35238 ft 522 kts 71°
2026-05-04 14:08 50.96157 -40.25448 35239 ft 522 kts 72°
2026-05-04 14:09 50.98692 -40.08729 35233 ft 521 kts 72°
2026-05-04 14:10 51.01733 -39.92354 35269 ft 512 kts 60°
2026-05-04 14:10 51.04488 -39.81949 35251 ft 514 kts 62°
2026-05-04 14:11 51.07160 -39.71452 35254 ft 515 kts 62°
2026-05-04 14:11 51.11089 -39.55738 35266 ft 513 kts 62°
2026-05-04 14:12 51.13702 -39.45185 35266 ft 514 kts 62°
2026-05-04 14:13 51.17596 -39.29356 35262 ft 514 kts 63°
2026-05-04 14:13 51.20171 -39.18823 35268 ft 513 kts 63°
2026-05-04 14:14 51.22753 -39.08215 35259 ft 515 kts 63°
2026-05-04 14:14 51.26586 -38.92354 35258 ft 511 kts 62°
2026-05-04 14:15 51.31661 -38.71192 35290 ft 511 kts 62°
2026-05-04 14:16 51.35428 -38.55348 35302 ft 510 kts 62°
2026-05-04 14:17 51.39181 -38.39443 35317 ft 511 kts 62°
2026-05-04 14:18 51.42893 -38.23595 35310 ft 510 kts 62°
2026-05-04 14:19 51.47840 -38.02295 35319 ft 511 kts 62°
2026-05-04 14:19 51.50291 -37.91653 35319 ft 509 kts 62°
2026-05-04 14:20 51.52724 -37.81051 35326 ft 508 kts 62°
2026-05-04 14:20 51.55155 -37.70401 35332 ft 511 kts 62°
2026-05-04 14:21 51.58778 -37.54425 35329 ft 510 kts 62°
2026-05-04 14:21 51.61184 -37.43743 35335 ft 508 kts 62°
2026-05-04 14:22 51.63570 -37.33101 35336 ft 508 kts 63°
2026-05-04 14:22 51.65944 -37.22457 35327 ft 508 kts 63°
2026-05-04 14:23 51.69486 -37.06472 35323 ft 506 kts 63°
2026-05-04 14:24 51.71839 -36.95796 35339 ft 508 kts 63°
2026-05-04 14:24 51.74168 -36.85154 35337 ft 503 kts 63°
2026-05-04 14:25 51.76488 -36.74518 35341 ft 505 kts 63°
2026-05-04 14:25 51.79958 -36.58489 35349 ft 505 kts 63°
2026-05-04 14:26 51.82255 -36.47815 35361 ft 505 kts 64°
2026-05-04 14:26 51.84534 -36.37162 35371 ft 503 kts 63°
2026-05-04 14:27 51.86807 -36.26494 35362 ft 506 kts 64°
2026-05-04 14:27 51.89071 -36.15794 35362 ft 503 kts 64°
2026-05-04 14:28 51.91324 -36.05106 35372 ft 505 kts 65°
2026-05-04 14:28 51.93566 -35.94399 35372 ft 502 kts 65°
2026-05-04 14:29 51.98019 -35.72983 35373 ft 504 kts 65°
2026-05-04 14:30 52.00228 -35.62266 35378 ft 501 kts 66°
2026-05-04 14:31 52.03511 -35.46237 35377 ft 501 kts 66°
2026-05-04 14:32 52.07866 -35.24774 35376 ft 502 kts 67°
2026-05-04 14:32 52.10020 -35.14062 35374 ft 500 kts 68°
2026-05-04 14:33 52.12168 -35.03332 35379 ft 502 kts 68°
2026-05-04 14:33 52.14307 -34.92589 35386 ft 500 kts 68°
2026-05-04 14:34 52.16427 -34.81868 35380 ft 499 kts 68°
2026-05-04 14:34 52.18540 -34.71137 35381 ft 500 kts 68°
2026-05-04 14:35 52.20637 -34.60422 35382 ft 498 kts 69°
2026-05-04 14:35 52.22722 -34.49713 35378 ft 497 kts 69°
2026-05-04 14:36 52.24796 -34.38998 35374 ft 499 kts 69°
2026-05-04 14:36 52.26868 -34.28232 35379 ft 499 kts 70°
2026-05-04 14:37 52.28929 -34.17465 35375 ft 498 kts 70°
2026-05-04 14:37 52.30978 -34.06694 35383 ft 498 kts 70°
2026-05-04 14:38 52.33008 -33.95960 35380 ft 496 kts 70°
2026-05-04 14:38 52.35028 -33.85225 35383 ft 497 kts 70°
2026-05-04 14:39 52.37044 -33.74451 35391 ft 498 kts 70°
2026-05-04 14:39 52.39051 -33.63660 35391 ft 498 kts 71°
2026-05-04 14:40 52.42038 -33.47479 35393 ft 497 kts 71°
2026-05-04 14:40 52.44020 -33.36668 35392 ft 498 kts 71°
2026-05-04 14:41 52.45992 -33.25841 35398 ft 498 kts 72°
2026-05-04 14:42 52.49912 -33.04136 35403 ft 499 kts 72°
2026-05-04 14:42 52.51859 -32.93256 35405 ft 499 kts 72°
2026-05-04 14:43 52.53797 -32.82363 35406 ft 499 kts 72°
2026-05-04 14:43 52.55723 -32.71469 35411 ft 499 kts 72°
2026-05-04 14:44 52.57640 -32.60562 35409 ft 499 kts 72°
2026-05-04 14:44 52.59550 -32.49626 35404 ft 499 kts 72°
2026-05-04 14:45 52.61449 -32.38691 35412 ft 499 kts 72°
2026-05-04 14:45 52.63338 -32.27739 35410 ft 500 kts 73°
2026-05-04 14:46 52.65221 -32.16761 35409 ft 501 kts 73°
2026-05-04 14:46 52.67097 -32.05748 35411 ft 502 kts 73°
2026-05-04 14:47 52.68965 -31.94714 35408 ft 502 kts 73°
2026-05-04 14:47 52.70823 -31.83673 35397 ft 502 kts 74°
2026-05-04 14:48 52.72669 -31.72627 35403 ft 502 kts 74°
2026-05-04 14:48 52.74505 -31.61573 35407 ft 502 kts 74°
2026-05-04 14:49 52.76331 -31.50511 35403 ft 501 kts 74°
2026-05-04 14:49 52.78145 -31.39447 35406 ft 502 kts 74°
2026-05-04 14:50 52.79953 -31.28348 35409 ft 503 kts 75°
2026-05-04 14:50 52.81751 -31.17236 35404 ft 503 kts 75°
2026-05-04 14:51 52.83541 -31.06105 35407 ft 504 kts 75°
2026-05-04 14:51 52.85324 -30.94941 35410 ft 504 kts 75°
2026-05-04 14:52 52.87095 -30.83773 35414 ft 503 kts 75°
2026-05-04 14:52 52.88853 -30.72613 35404 ft 503 kts 75°
2026-05-04 14:53 52.90603 -30.61433 35401 ft 504 kts 75°
2026-05-04 14:53 52.92340 -30.50259 35414 ft 503 kts 75°
2026-05-04 14:54 52.94070 -30.39053 35418 ft 504 kts 75°
2026-05-04 14:54 52.95789 -30.27843 35404 ft 503 kts 76°
2026-05-04 14:55 52.97496 -30.16630 35403 ft 504 kts 76°
2026-05-04 14:55 52.99195 -30.05389 35413 ft 505 kts 76°
2026-05-04 14:56 53.00847 -29.94129 35405 ft 504 kts 77°
2026-05-04 14:56 53.02474 -29.82856 35408 ft 505 kts 77°
2026-05-04 14:57 53.04088 -29.71567 35404 ft 504 kts 77°
2026-05-04 14:57 53.05687 -29.60289 35417 ft 504 kts 77°
2026-05-04 14:58 53.07276 -29.49000 35402 ft 503 kts 77°
2026-05-04 14:58 53.08850 -29.37726 35395 ft 503 kts 77°
2026-05-04 14:59 53.10414 -29.26449 35384 ft 502 kts 77°
2026-05-04 15:00 53.12732 -29.09567 35381 ft 501 kts 77°
2026-05-04 15:00 53.14268 -28.98272 35380 ft 502 kts 77°
2026-05-04 15:01 53.16555 -28.81302 35377 ft 503 kts 77°
2026-05-04 15:01 53.18062 -28.70000 35381 ft 501 kts 77°
2026-05-04 15:02 53.19558 -28.58699 35385 ft 501 kts 77°
2026-05-04 15:02 53.21045 -28.47379 35389 ft 503 kts 77°
2026-05-04 15:03 53.22521 -28.36047 35397 ft 502 kts 77°
2026-05-04 15:03 53.23985 -28.24723 35396 ft 501 kts 78°
2026-05-04 15:04 53.25440 -28.13371 35515 ft 503 kts 78°
2026-05-04 15:04 53.26168 -28.07660 35648 ft 504 kts 77°
2026-05-04 15:04 53.26890 -28.01965 35845 ft 502 kts 77°
2026-05-04 15:05 53.27608 -27.96288 35983 ft 502 kts 77°
2026-05-04 15:05 53.28322 -27.90618 36151 ft 500 kts 77°
2026-05-04 15:05 53.29031 -27.84967 36310 ft 499 kts 77°
2026-05-04 15:05 53.29735 -27.79327 36497 ft 498 kts 77°
2026-05-04 15:06 53.30435 -27.73697 36684 ft 497 kts 77°
2026-05-04 15:06 53.31133 -27.68060 36839 ft 498 kts 77°
2026-05-04 15:06 53.31827 -27.62434 37048 ft 496 kts 77°
2026-05-04 15:07 53.33207 -27.51167 37379 ft 496 kts 77°
2026-05-04 15:07 53.33892 -27.45549 37548 ft 495 kts 77°
2026-05-04 15:07 53.34572 -27.39935 37720 ft 494 kts 77°
2026-05-04 15:07 53.35252 -27.34314 37851 ft 495 kts 78°
2026-05-04 15:08 53.35927 -27.28700 37992 ft 494 kts 78°
2026-05-04 15:08 53.36599 -27.23084 38123 ft 494 kts 78°
2026-05-04 15:08 53.37271 -27.17456 38262 ft 494 kts 78°
2026-05-04 15:08 53.37939 -27.11831 38388 ft 494 kts 78°
2026-05-04 15:09 53.38602 -27.06221 38502 ft 494 kts 78°
2026-05-04 15:09 53.39263 -27.00609 38627 ft 493 kts 78°
2026-05-04 15:09 53.39921 -26.94992 38777 ft 492 kts 78°
2026-05-04 15:10 53.41227 -26.83783 38969 ft 492 kts 78°
2026-05-04 15:10 53.41875 -26.78179 39090 ft 492 kts 78°
2026-05-04 15:10 53.43162 -26.66985 39320 ft 490 kts 78°
2026-05-04 15:11 53.43791 -26.61466 39368 ft 477 kts 77°
2026-05-04 15:11 53.44397 -26.56128 39358 ft 459 kts 77°
2026-05-04 15:11 53.44981 -26.50975 39352 ft 447 kts 77°
2026-05-04 15:12 53.46129 -26.40782 39380 ft 448 kts 77°
2026-05-04 15:12 53.47276 -26.30514 39375 ft 451 kts 78°
2026-05-04 15:13 53.48420 -26.20187 39369 ft 454 kts 78°
2026-05-04 15:13 53.49561 -26.09792 39384 ft 456 kts 78°
2026-05-04 15:14 53.50697 -25.99350 39371 ft 457 kts 78°
2026-05-04 15:14 53.51826 -25.88891 39368 ft 457 kts 78°
2026-05-04 15:15 53.52945 -25.78443 39374 ft 456 kts 78°
2026-05-04 15:15 53.54056 -25.67973 39369 ft 457 kts 78°
2026-05-04 15:16 53.55704 -25.52261 39372 ft 456 kts 78°
2026-05-04 15:17 53.57330 -25.36556 39365 ft 457 kts 78°
2026-05-04 15:17 53.58936 -25.20834 39369 ft 456 kts 79°
2026-05-04 15:18 53.59995 -25.10349 39356 ft 456 kts 79°
2026-05-04 15:19 53.61561 -24.94665 39346 ft 455 kts 79°
2026-05-04 15:19 53.63109 -24.78943 39346 ft 455 kts 79°
2026-05-04 15:20 53.64129 -24.68460 39348 ft 455 kts 79°
2026-05-04 15:20 53.65140 -24.57970 39347 ft 456 kts 79°
2026-05-04 15:21 53.66144 -24.47453 39343 ft 456 kts 79°
2026-05-04 15:22 53.67630 -24.31698 39342 ft 456 kts 79°
2026-05-04 15:22 53.69092 -24.15959 39347 ft 454 kts 79°
2026-05-04 15:23 53.70055 -24.05473 39344 ft 454 kts 79°
2026-05-04 15:23 53.71007 -23.94994 39345 ft 454 kts 79°
2026-05-04 15:24 53.72890 -23.73964 39335 ft 456 kts 79°
2026-05-04 15:25 53.73817 -23.63444 39327 ft 455 kts 80°
2026-05-04 15:26 53.75188 -23.47676 39327 ft 454 kts 79°
2026-05-04 15:26 53.76539 -23.31904 39328 ft 454 kts 81°
2026-05-04 15:27 53.77867 -23.16146 39332 ft 454 kts 81°
2026-05-04 15:28 53.79175 -23.00360 39325 ft 454 kts 81°
2026-05-04 15:29 53.80464 -22.84557 39326 ft 456 kts 81°
2026-05-04 15:30 53.83430 -22.47121 39330 ft 465 kts 81°
2026-05-04 15:31 53.84684 -22.30830 39328 ft 469 kts 82°
2026-05-04 15:32 53.86740 -22.03415 39315 ft 473 kts 82°
2026-05-04 15:34 53.88744 -21.75849 39321 ft 473 kts 82°
2026-05-04 15:34 53.89914 -21.59331 39314 ft 472 kts 82°
2026-05-04 15:35 53.91056 -21.42862 39309 ft 470 kts 82°
2026-05-04 15:36 53.92175 -21.26396 39305 ft 472 kts 83°
2026-05-04 15:36 53.92911 -21.15383 39308 ft 472 kts 82°
2026-05-04 15:37 53.93636 -21.04377 39309 ft 471 kts 82°
2026-05-04 15:37 53.94352 -20.93366 39299 ft 472 kts 83°
2026-05-04 15:38 53.95056 -20.82358 39300 ft 471 kts 83°
2026-05-04 15:38 53.95750 -20.71349 39295 ft 471 kts 83°
2026-05-04 15:39 53.96433 -20.60363 39295 ft 470 kts 83°
2026-05-04 15:40 53.97437 -20.43885 39289 ft 471 kts 83°
2026-05-04 15:40 53.98097 -20.32860 39280 ft 472 kts 83°
2026-05-04 15:41 53.98746 -20.21834 39286 ft 471 kts 83°
2026-05-04 15:41 53.99385 -20.10805 39285 ft 471 kts 83°
2026-05-04 15:42 53.99950 -19.99758 39281 ft 471 kts 87°
2026-05-04 15:42 54.00208 -19.88670 39278 ft 472 kts 87°
2026-05-04 15:43 54.00437 -19.77581 39273 ft 471 kts 87°
2026-05-04 15:43 54.00646 -19.66517 39270 ft 471 kts 87°
2026-05-04 15:44 54.00842 -19.55433 39273 ft 472 kts 87°
2026-05-04 15:44 54.01026 -19.44328 39263 ft 472 kts 87°
2026-05-04 15:45 54.01200 -19.33241 39267 ft 471 kts 88°
2026-05-04 15:45 54.01364 -19.22135 39258 ft 472 kts 88°
2026-05-04 15:46 54.01518 -19.11017 39256 ft 473 kts 88°
2026-05-04 15:46 54.01662 -18.99881 39259 ft 474 kts 88°
2026-05-04 15:47 54.01795 -18.88723 39257 ft 474 kts 88°
2026-05-04 15:47 54.01918 -18.77592 39252 ft 473 kts 88°
2026-05-04 15:48 54.02030 -18.66476 39250 ft 472 kts 88°
2026-05-04 15:48 54.02180 -18.49814 39246 ft 472 kts 88°
2026-05-04 15:49 54.02267 -18.38718 39247 ft 472 kts 87°
2026-05-04 15:49 54.02344 -18.27611 39242 ft 472 kts 88°
2026-05-04 15:50 54.02409 -18.16731 39238 ft 473 kts 88°
2026-05-04 15:50 54.02465 -18.05609 39237 ft 472 kts 88°
2026-05-04 15:51 54.02511 -17.94494 39238 ft 472 kts 88°
2026-05-04 15:51 54.02547 -17.83398 39236 ft 472 kts 88°
2026-05-04 15:52 54.02573 -17.72283 39235 ft 472 kts 88°
2026-05-04 15:52 54.02588 -17.61194 39237 ft 471 kts 88°
2026-05-04 15:53 54.02594 -17.50074 39236 ft 472 kts 88°
2026-05-04 15:53 54.02588 -17.38957 39231 ft 472 kts 88°
2026-05-04 15:54 54.02573 -17.27848 39223 ft 472 kts 89°
2026-05-04 15:54 54.02548 -17.16743 39217 ft 472 kts 89°
2026-05-04 15:55 54.02512 -17.05649 39220 ft 471 kts 89°
2026-05-04 15:55 54.02466 -16.94584 39219 ft 470 kts 89°
2026-05-04 15:56 54.02410 -16.83513 39216 ft 470 kts 89°
2026-05-04 15:56 54.02344 -16.72451 39211 ft 470 kts 89°
2026-05-04 15:57 54.02267 -16.61357 39205 ft 472 kts 89°
2026-05-04 15:57 54.02180 -16.50237 39213 ft 472 kts 89°
2026-05-04 15:58 54.02083 -16.39146 39212 ft 470 kts 89°
2026-05-04 15:58 54.01977 -16.28086 39204 ft 470 kts 90°
2026-05-04 15:59 54.01860 -16.17016 39194 ft 470 kts 90°
2026-05-04 15:59 54.01733 -16.05976 39209 ft 470 kts 90°
2026-05-04 16:00 54.01595 -15.94916 39217 ft 470 kts 90°
2026-05-04 16:00 54.01448 -15.83855 39211 ft 471 kts 90°
2026-05-04 16:01 54.01290 -15.72773 39206 ft 471 kts 90°
2026-05-04 16:01 54.01122 -15.61699 39196 ft 470 kts 90°
2026-05-04 16:02 54.00944 -15.50624 39192 ft 470 kts 90°
2026-05-04 16:03 54.00658 -15.34043 39189 ft 470 kts 91°
2026-05-04 16:03 54.00455 -15.23000 39184 ft 469 kts 91°
2026-05-04 16:04 54.00241 -15.11960 39182 ft 469 kts 91°
2026-05-04 16:04 54.00003 -14.95385 39180 ft 469 kts 88°
2026-05-04 16:05 54.00051 -14.84359 39169 ft 469 kts 89°
2026-05-04 16:06 54.00090 -14.67804 39161 ft 469 kts 89°
2026-05-04 16:07 54.00102 -14.45729 39161 ft 469 kts 89°
2026-05-04 16:08 54.00074 -14.23655 39159 ft 470 kts 89°
2026-05-04 16:09 53.99507 -13.96116 39166 ft 470 kts 99°
2026-05-04 16:10 53.97202 -13.74399 39163 ft 468 kts 100°
2026-05-04 16:11 53.94814 -13.52794 39155 ft 467 kts 100°
2026-05-04 16:12 53.91159 -13.20527 39153 ft 466 kts 101°
2026-05-04 16:13 53.88675 -12.99061 39149 ft 465 kts 101°
2026-05-04 16:14 53.86162 -12.77692 39157 ft 464 kts 100°
2026-05-04 16:16 53.82969 -12.51038 39156 ft 464 kts 100°
2026-05-04 16:17 53.79724 -12.24474 39154 ft 464 kts 101°
2026-05-04 16:18 53.77083 -12.03234 39153 ft 463 kts 101°
2026-05-04 16:19 53.74889 -11.85844 39148 ft 461 kts 101°
2026-05-04 16:20 53.71516 -11.59509 39134 ft 461 kts 101°
2026-05-04 16:22 53.68088 -11.33234 39130 ft 460 kts 102°
2026-05-04 16:23 53.63903 -11.01794 39131 ft 459 kts 102°
2026-05-04 16:25 53.59654 -10.70553 39134 ft 458 kts 101°
2026-05-04 16:26 53.54601 -10.34231 39134 ft 457 kts 102°
2026-05-04 16:28 53.50928 -10.08370 39128 ft 456 kts 102°
2026-05-04 16:29 53.45713 -9.72375 39125 ft 454 kts 102°
2026-05-04 16:31 53.41935 -9.46805 39114 ft 453 kts 102°
2026-05-04 16:32 53.37339 -9.16248 39103 ft 452 kts 102°
2026-05-04 16:33 53.34240 -8.95964 39093 ft 453 kts 102°
2026-05-04 16:34 53.31889 -8.80746 39081 ft 451 kts 102°
2026-05-04 16:35 53.27157 -8.50538 39077 ft 451 kts 102°
2026-05-04 16:36 53.24763 -8.35461 39089 ft 449 kts 102°
2026-05-04 16:37 53.22345 -8.20377 39073 ft 449 kts 103°
2026-05-04 16:38 53.19108 -8.00378 39065 ft 449 kts 103°
2026-05-04 16:39 53.15004 -7.75369 39086 ft 448 kts 102°
2026-05-04 16:40 53.11689 -7.55428 39060 ft 448 kts 103°
2026-05-04 16:41 53.07504 -7.30577 39058 ft 450 kts 103°
2026-05-04 16:43 53.03262 -7.05744 39071 ft 448 kts 103°
2026-05-04 16:43 53.00700 -6.90915 39052 ft 446 kts 104°
2026-05-04 16:45 52.95509 -6.61243 39022 ft 448 kts 104°
2026-05-04 16:46 52.91137 -6.36624 39023 ft 447 kts 104°
2026-05-04 16:47 52.87587 -6.16874 39056 ft 448 kts 105°
2026-05-04 16:48 52.84009 -5.97191 39057 ft 447 kts 105°
2026-05-04 16:49 52.80406 -5.77577 39046 ft 449 kts 105°
2026-05-04 16:50 52.76767 -5.57980 39066 ft 447 kts 105°
2026-05-04 16:51 52.73203 -5.43811 39056 ft 450 kts 114°
2026-05-04 16:52 52.67585 -5.25425 39071 ft 451 kts 116°
2026-05-04 16:53 52.63280 -5.11684 39041 ft 452 kts 116°
2026-05-04 16:54 52.57514 -4.93454 39045 ft 452 kts 116°
2026-05-04 16:55 52.48805 -4.66193 39033 ft 452 kts 116°
2026-05-04 16:56 52.41480 -4.43499 39029 ft 454 kts 116°
2026-05-04 16:57 52.37033 -4.29825 39028 ft 454 kts 117°
2026-05-04 16:58 52.31086 -4.11651 39012 ft 453 kts 117°
2026-05-04 17:00 52.22146 -3.84583 39006 ft 456 kts 117°
2026-05-04 17:01 52.14584 -3.61915 39015 ft 456 kts 117°
2026-05-04 17:02 52.08527 -3.43909 39020 ft 455 kts 118°
2026-05-04 17:03 52.03980 -3.30475 39029 ft 454 kts 118°
2026-05-04 17:03 51.99380 -3.16960 39023 ft 456 kts 119°
2026-05-04 17:04 51.93242 -2.99038 39022 ft 454 kts 119°
2026-05-04 17:05 51.87092 -2.81207 39021 ft 455 kts 119°
2026-05-04 17:06 51.82451 -2.67837 39019 ft 456 kts 119°
2026-05-04 17:07 51.78311 -2.55968 39019 ft 455 kts 119°
2026-05-04 17:07 51.74690 -2.45635 39017 ft 455 kts 119°
2026-05-04 17:08 51.70021 -2.32372 39018 ft 455 kts 120°
2026-05-04 17:09 51.66880 -2.23486 39016 ft 455 kts 120°
2026-05-04 17:09 51.63744 -2.14650 39017 ft 456 kts 120°
2026-05-04 17:10 51.55895 -1.92662 39018 ft 454 kts 120°
2026-05-04 17:11 51.52745 -1.83889 39015 ft 455 kts 120°
2026-05-04 17:12 51.48013 -1.70721 39011 ft 456 kts 117°
2026-05-04 17:12 51.45962 -1.61185 39027 ft 457 kts 102°
2026-05-04 17:13 51.43969 -1.46293 39002 ft 456 kts 102°
2026-05-04 17:14 51.41252 -1.26575 38993 ft 444 kts 103°
2026-05-04 17:14 51.39943 -1.17169 38995 ft 430 kts 102°
2026-05-04 17:15 51.39536 -1.12427 39014 ft 433 kts 96°
2026-05-04 17:16 51.38519 -0.93085 39004 ft 440 kts 96°
2026-05-04 17:17 51.37491 -0.73719 39002 ft 438 kts 96°
2026-05-04 17:18 51.36433 -0.54347 39000 ft 439 kts 96°
2026-05-04 17:19 51.35345 -0.34995 38995 ft 438 kts 97°
2026-05-04 17:20 51.34223 -0.15612 39002 ft 440 kts 97°
2026-05-04 17:20 51.33361 -0.01088 39002 ft 438 kts 97°
2026-05-04 17:21 51.32405 0.18266 39004 ft 438 kts 96°
2026-05-04 17:22 51.31951 0.27934 39004 ft 438 kts 96°
2026-05-04 17:23 51.31016 0.47305 39001 ft 440 kts 95°
2026-05-04 17:24 51.30315 0.61896 39003 ft 441 kts 94°
2026-05-04 17:25 51.29623 0.81347 39001 ft 439 kts 95°
2026-05-04 17:26 51.28891 1.00772 38995 ft 441 kts 95°
2026-05-04 17:27 51.27928 1.25116 38992 ft 440 kts 95°
2026-05-04 17:28 51.27122 1.44562 38998 ft 440 kts 95°
2026-05-04 17:29 51.25845 1.73887 38997 ft 445 kts 96°
2026-05-04 17:30 51.25168 1.88782 38603 ft 463 kts 96°
2026-05-04 17:31 51.24691 1.99056 37219 ft 465 kts 96°
2026-05-04 17:31 51.23979 2.14131 35471 ft 451 kts 97°
2026-05-04 17:32 51.23494 2.24101 34209 ft 455 kts 97°
2026-05-04 17:33 51.21963 2.38862 31924 ft 455 kts 115°
2026-05-04 17:33 51.20586 2.43355 31176 ft 452 kts 124°
2026-05-04 17:34 51.14820 2.55062 28747 ft 450 kts 132°
2026-05-04 17:34 51.12827 2.58833 27934 ft 445 kts 131°
2026-05-04 17:35 51.08882 2.71849 25710 ft 435 kts 104°
2026-05-04 17:35 51.07624 2.81209 24556 ft 434 kts 103°
2026-05-04 17:35 51.07028 2.85892 24008 ft 433 kts 102°
2026-05-04 17:36 51.06447 2.90540 23453 ft 428 kts 102°
2026-05-04 17:36 51.05879 2.95123 22906 ft 421 kts 102°
2026-05-04 17:36 51.05322 2.99641 22364 ft 416 kts 102°
2026-05-04 17:36 51.04771 3.04123 21824 ft 413 kts 102°
2026-05-04 17:37 51.04223 3.08567 21303 ft 410 kts 101°
2026-05-04 17:37 51.03680 3.12963 20785 ft 405 kts 101°
2026-05-04 17:37 51.03143 3.17313 20269 ft 401 kts 101°
2026-05-04 17:37 51.02609 3.21616 19777 ft 397 kts 101°
2026-05-04 17:38 51.02079 3.25874 19275 ft 394 kts 101°
2026-05-04 17:38 51.01550 3.30114 18780 ft 391 kts 101°
2026-05-04 17:38 51.01025 3.34315 18283 ft 389 kts 101°
2026-05-04 17:38 51.00501 3.38488 17812 ft 385 kts 101°
2026-05-04 17:39 50.99459 3.46755 16845 ft 381 kts 101°
2026-05-04 17:39 50.98941 3.50846 16364 ft 378 kts 101°
2026-05-04 17:39 50.98425 3.54910 15882 ft 375 kts 101°
2026-05-04 17:40 50.97911 3.58943 15409 ft 373 kts 100°
2026-05-04 17:40 50.97400 3.62945 14930 ft 371 kts 100°
2026-05-04 17:40 50.96889 3.66934 14456 ft 368 kts 101°
2026-05-04 17:40 50.96381 3.70890 13985 ft 366 kts 101°
2026-05-04 17:41 50.95872 3.74837 13503 ft 364 kts 101°
2026-05-04 17:41 50.95367 3.78738 13029 ft 361 kts 101°
2026-05-04 17:41 50.94865 3.82616 12562 ft 359 kts 101°
2026-05-04 17:41 50.94365 3.86462 12092 ft 357 kts 101°
2026-05-04 17:42 50.93865 3.90296 11621 ft 354 kts 101°
2026-05-04 17:42 50.93369 3.94095 11162 ft 352 kts 100°
2026-05-04 17:42 50.93019 3.97899 10707 ft 348 kts 89°
2026-05-04 17:42 50.93327 4.01657 10271 ft 343 kts 72°
2026-05-04 17:43 50.94094 4.05164 9852 ft 332 kts 69°
2026-05-04 17:43 50.94857 4.08569 9483 ft 324 kts 69°
2026-05-04 17:43 50.95604 4.11872 9148 ft 314 kts 69°
2026-05-04 17:43 50.96332 4.15075 8847 ft 304 kts 69°
2026-05-04 17:44 50.97036 4.18175 8611 ft 294 kts 69°
2026-05-04 17:44 50.97715 4.21161 8429 ft 283 kts 69°
2026-05-04 17:44 50.98368 4.24033 8283 ft 271 kts 69°
2026-05-04 17:44 50.98989 4.26772 8157 ft 257 kts 69°
2026-05-04 17:45 50.99592 4.29424 8039 ft 259 kts 69°
2026-05-04 17:45 51.00211 4.32149 7913 ft 266 kts 69°
2026-05-04 17:45 51.00826 4.34869 7743 ft 257 kts 69°
2026-05-04 17:45 51.01419 4.37491 7568 ft 250 kts 69°
2026-05-04 17:46 51.02005 4.40084 7402 ft 251 kts 69°
2026-05-04 17:46 51.02598 4.42709 7223 ft 253 kts 69°
2026-05-04 17:46 51.03189 4.45333 7031 ft 252 kts 69°
2026-05-04 17:46 51.03777 4.47942 6833 ft 250 kts 69°
2026-05-04 17:47 51.04360 4.50538 6633 ft 249 kts 69°
2026-05-04 17:47 51.04942 4.53123 6438 ft 248 kts 68°
2026-05-04 17:47 51.05805 4.55428 6406 ft 243 kts 43°
2026-05-04 17:47 51.07250 4.56804 6425 ft 248 kts 15°
2026-05-04 17:48 51.08962 4.56905 6419 ft 250 kts 346°
2026-05-04 17:48 51.10509 4.55648 6423 ft 253 kts 322°
2026-05-04 17:48 51.11773 4.53703 6387 ft 255 kts 304°
2026-05-04 17:48 51.12371 4.51059 6341 ft 256 kts 274°
2026-05-04 17:49 51.12255 4.48243 6370 ft 259 kts 254°
2026-05-04 17:49 51.11528 4.45617 6405 ft 262 kts 240°
2026-05-04 17:49 51.10588 4.43136 6409 ft 262 kts 237°
2026-05-04 17:49 51.09576 4.40726 6410 ft 261 kts 237°
2026-05-04 17:50 51.08584 4.38309 6410 ft 261 kts 237°
2026-05-04 17:50 51.07594 4.35881 6410 ft 262 kts 237°
2026-05-04 17:50 51.06606 4.33451 6412 ft 262 kts 237°
2026-05-04 17:50 51.05618 4.31015 6414 ft 262 kts 237°
2026-05-04 17:51 51.04631 4.28583 6417 ft 261 kts 237°
2026-05-04 17:51 51.03651 4.26164 6415 ft 262 kts 237°
2026-05-04 17:51 51.02666 4.23737 6418 ft 262 kts 237°
2026-05-04 17:51 51.01680 4.21308 6418 ft 263 kts 237°
2026-05-04 17:52 51.00691 4.18875 6417 ft 262 kts 237°
2026-05-04 17:52 50.99705 4.16450 6420 ft 262 kts 237°
2026-05-04 17:52 50.98720 4.14029 6414 ft 261 kts 237°
2026-05-04 17:52 50.97744 4.11635 6444 ft 253 kts 237°
2026-05-04 17:53 50.96817 4.09362 6366 ft 241 kts 237°
2026-05-04 17:53 50.95918 4.07160 6201 ft 236 kts 237°
2026-05-04 17:53 50.95041 4.05015 6045 ft 226 kts 237°
2026-05-04 17:53 50.94158 4.02973 5637 ft 228 kts 226°
2026-05-04 17:54 50.92840 4.01668 5204 ft 226 kts 191°
2026-05-04 17:54 50.91312 4.01735 4787 ft 221 kts 157°
2026-05-04 17:54 50.90021 4.02953 4421 ft 215 kts 141°
2026-05-04 17:54 50.88798 4.04313 4052 ft 214 kts 143°
2026-05-04 17:55 50.87588 4.05583 3947 ft 205 kts 143°
2026-05-04 17:55 50.86373 4.06846 3938 ft 213 kts 144°
2026-05-04 17:55 50.85116 4.08135 3871 ft 216 kts 145°
2026-05-04 17:55 50.83852 4.09419 3700 ft 216 kts 145°
2026-05-04 17:56 50.82591 4.10694 3479 ft 215 kts 144°
2026-05-04 17:56 50.81546 4.12307 3189 ft 208 kts 114°
2026-05-04 17:56 50.81303 4.14462 2983 ft 197 kts 77°
2026-05-04 17:56 50.81708 4.16502 2985 ft 198 kts 69°
2026-05-04 17:57 50.82173 4.18574 2971 ft 201 kts 69°
2026-05-04 17:57 50.82642 4.20648 2962 ft 197 kts 69°
2026-05-04 17:57 50.83145 4.22564 2958 ft 180 kts 63°
2026-05-04 17:57 50.83672 4.24264 2968 ft 172 kts 64°
2026-05-04 17:58 50.84205 4.26039 2893 ft 186 kts 64°
2026-05-04 17:58 50.84761 4.27906 2617 ft 187 kts 64°
2026-05-04 17:58 50.85299 4.29733 2320 ft 179 kts 65°
2026-05-04 17:58 50.85800 4.31441 2059 ft 163 kts 65°
2026-05-04 17:59 50.86248 4.32972 1859 ft 148 kts 65°
2026-05-04 17:59 50.86673 4.34427 1665 ft 144 kts 65°
2026-05-04 17:59 50.87464 4.37155 1286 ft 131 kts 65°
2026-05-04 18:00 50.87848 4.38477 1120 ft 132 kts 65°
2026-05-04 18:00 50.88240 4.39806 964 ft 133 kts 63°
2026-05-04 18:00 50.88627 4.41141 807 ft 135 kts 65°
2026-05-04 18:00 50.89009 4.42520 613 ft 138 kts 64°
2026-05-04 18:01 50.89411 4.43899 448 ft 138 kts 62°
2026-05-04 18:01 50.89813 4.45294 263 ft 141 kts 63°
2026-05-04 18:01 50.90218 4.46687 136 ft 133 kts 64°
2026-05-04 18:02 50.90730 4.48462 127 ft 55 kts 65°
2026-05-04 18:02 50.90891 4.49021 126 ft 55 kts 64°
2026-05-04 18:02 50.90982 4.49482 125 ft 35 kts 86°
2026-05-04 18:02 50.90920 4.49693 127 ft 12 kts 186°
2026-05-04 18:03 50.90854 4.49637 129 ft 10 kts 200°
2026-05-04 18:03 50.90792 4.49611 130 ft 8 kts 193°
2026-05-04 18:03 50.90739 4.49590 131 ft 7 kts 194°
2026-05-04 18:03 50.90692 4.49571 132 ft 6 kts 194°
2026-05-04 18:04 50.90650 4.49554 134 ft 5 kts 194°
2026-05-04 18:04 50.90606 4.49535 135 ft 8 kts 194°
2026-05-04 18:04 50.90420 4.49461 140 ft 19 kts 195°
2026-05-04 18:05 50.90332 4.49339 141 ft 18 kts 245°
2026-05-04 18:05 50.90274 4.49236 142 ft 13 kts 196°
2026-05-04 18:05 50.90223 4.49215 144 ft 2 kts 193°